Location: Miles
(41.4492°N, 81.6087°W)
Time: 19:30:38
(UTC+00:00)

Tiros 1 despin weight - Pass Details

Date: 15 September 2024
Orbit: 573 x 615 km, 48.2° (Epoch: 04 October)

Event Time Altitude Azimuth Distance (km) Brightness Sun altitude
Rises 08:29:22 0° 234° (SW) 2,858 - -28.6°
Reaches altitude 10° 08:31:39 10° 233° (SW) 1,963 - -28.3°
Maximum altitude 08:36:09 74° 149° (SSE) 644 - -27.5°
Exits shadow 08:37:06 54° 82° (E) 753 ? -27.4°
Drops below altitude 10° 08:40:43 10° 64° (ENE) 1,984 ? -26.8°
Sets 08:43:02 0° 63° (ENE) 2,893 ? -26.5°
